Time,TemperatureF,DewpointF,PressureIn,WindDirection,WindDirectionDegrees,WindSpeedMPH,WindSpeedGustMPH,Humidity,HourlyPrecipIn,Conditions,Clouds,dailyrainin,SoftwareType,DateUTC
2013-02-08 00:01:00,24.0,21.0,-100.00,North,0,11.0,16.0,89,0.00,,,-99.99,,2013-02-08 06:01:00,
2013-02-08 00:11:00,23.0,21.0,-100.00,North,350,9.0,15.0,90,0.00,,,-99.99,,2013-02-08 06:11:00,
2013-02-08 00:21:00,23.0,21.0,-100.00,North,5,9.0,12.0,91,0.00,,,-99.99,,2013-02-08 06:21:00,
2013-02-08 00:31:00,23.0,21.0,-100.00,NNE,20,6.0,12.0,91,0.00,,,-99.99,,2013-02-08 06:31:00,
2013-02-08 00:42:00,23.0,21.0,-100.00,NE,40,7.0,11.0,91,0.00,,,-99.99,,2013-02-08 06:42:00,
2013-02-08 00:51:00,23.0,21.0,-100.00,North,0,12.0,15.0,91,0.00,,,-99.99,,2013-02-08 06:51:00,
2013-02-08 01:01:00,23.0,21.0,-100.00,North,350,11.0,13.0,91,0.00,,,-99.99,,2013-02-08 07:01:00,
2013-02-08 01:11:00,22.0,20.0,-100.00,NE,35,7.0,14.0,91,0.00,,,-99.99,,2013-02-08 07:11:00,
2013-02-08 01:21:00,23.0,21.0,-100.00,North,5,8.0,10.0,91,0.00,,,-99.99,,2013-02-08 07:21:00,
2013-02-08 01:32:00,23.0,21.0,-100.00,North,0,7.0,9.0,91,0.00,,,-99.99,,2013-02-08 07:32:00,
2013-02-08 01:42:00,23.0,21.0,-100.00,NNE,25,6.0,10.0,91,0.00,,,-99.99,,2013-02-08 07:42:00,
2013-02-08 01:51:00,22.0,20.0,-100.00,NE,40,6.0,10.0,91,0.00,,,-99.99,,2013-02-08 07:51:00,
2013-02-08 02:01:00,22.0,20.0,-100.00,North,5,6.0,12.0,91,0.00,,,-99.99,,2013-02-08 08:01:00,
2013-02-08 02:11:00,22.0,20.0,-100.00,North,0,8.0,12.0,91,0.00,,,-99.99,,2013-02-08 08:11:00,
2013-02-08 02:21:00,22.0,20.0,-100.00,North,0,7.0,12.0,91,0.00,,,-99.99,,2013-02-08 08:21:00,
2013-02-08 02:32:00,22.0,20.0,-100.00,North,0,7.0,13.0,91,0.00,,,-99.99,,2013-02-08 08:32:00,
2013-02-08 02:42:00,22.0,20.0,-100.00,NNE,15,7.0,11.0,91,0.00,,,-99.99,,2013-02-08 08:42:00,
2013-02-08 02:52:00,22.0,20.0,-100.00,NNE,20,7.0,11.0,91,0.00,,,-99.99,,2013-02-08 08:52:00,
2013-02-08 03:03:00,22.0,20.0,-100.00,NNE,15,5.0,11.0,91,0.00,,,-99.99,,2013-02-08 09:03:00,
2013-02-08 03:11:00,22.0,20.0,-100.00,North,5,5.0,7.0,91,0.00,,,-99.99,,2013-02-08 09:11:00,
2013-02-08 03:21:00,22.0,20.0,-100.00,North,5,6.0,7.0,91,0.00,,,-99.99,,2013-02-08 09:21:00,
2013-02-08 03:32:00,22.0,20.0,-100.00,North,0,7.0,9.0,91,0.00,,,-99.99,,2013-02-08 09:32:00,
2013-02-08 03:42:00,22.0,20.0,-100.00,North,0,5.0,6.0,91,0.00,,,-99.99,,2013-02-08 09:42:00,
2013-02-08 03:52:00,22.0,20.0,-100.00,North,0,6.0,9.0,91,0.00,,,-99.99,,2013-02-08 09:52:00,
2013-02-08 04:01:00,22.0,20.0,-100.00,NNW,335,3.0,7.0,91,0.00,,,-99.99,,2013-02-08 10:01:00,
2013-02-08 04:11:00,22.0,20.0,-100.00,NNW,335,4.0,5.0,91,0.00,,,-99.99,,2013-02-08 10:11:00,
2013-02-08 04:22:00,22.0,20.0,-100.00,North,10,4.0,7.0,91,0.00,,,-99.99,,2013-02-08 10:22:00,
2013-02-08 04:31:00,22.0,20.0,-100.00,North,355,2.0,6.0,91,0.00,,,-99.99,,2013-02-08 10:31:00,
2013-02-08 04:42:00,22.0,20.0,-100.00,NNW,335,6.0,7.0,91,0.00,,,-99.99,,2013-02-08 10:42:00,
2013-02-08 04:51:00,22.0,20.0,-100.00,NE,45,2.0,7.0,91,0.00,,,-99.99,,2013-02-08 10:51:00,
2013-02-08 05:01:00,22.0,20.0,-100.00,North,350,5.0,7.0,91,0.00,,,-99.99,,2013-02-08 11:01:00,
2013-02-08 05:11:00,22.0,20.0,-100.00,NNW,345,5.0,7.0,91,0.00,,,-99.99,,2013-02-08 11:11:00,
2013-02-08 05:21:00,22.0,20.0,-100.00,NW,325,0.0,7.0,91,0.00,,,-99.99,,2013-02-08 11:21:00,
2013-02-08 05:32:00,22.0,20.0,-100.00,WNW,295,2.0,5.0,91,0.00,,,-99.99,,2013-02-08 11:32:00,
2013-02-08 05:42:00,22.0,20.0,-100.00,NW,320,1.0,2.0,91,0.00,,,-99.99,,2013-02-08 11:42:00,
2013-02-08 05:52:00,22.0,20.0,-100.00,North,355,1.0,2.0,91,0.00,,,-99.99,,2013-02-08 11:52:00,
2013-02-08 06:02:00,22.0,20.0,-100.00,SSE,165,2.0,3.0,91,0.00,,,-99.99,,2013-02-08 12:02:00,
2013-02-08 06:11:00,22.0,20.0,-100.00,West,275,1.0,2.0,91,0.00,,,-99.99,,2013-02-08 12:11:00,
2013-02-08 06:22:00,22.0,20.0,-100.00,SE,135,2.0,4.0,91,0.00,,,-99.99,,2013-02-08 12:22:00,
2013-02-08 06:33:00,22.0,20.0,-100.00,East,80,4.0,5.0,91,0.00,,,-99.99,,2013-02-08 12:33:00,
2013-02-08 06:42:00,22.0,20.0,-100.00,East,85,1.0,6.0,91,0.00,,,-99.99,,2013-02-08 12:42:00,
2013-02-08 06:52:00,22.0,20.0,-100.00,SSE,160,2.0,4.0,91,0.00,,,-99.99,,2013-02-08 12:52:00,
2013-02-08 07:01:00,21.0,19.0,-100.00,SE,125,4.0,5.0,91,0.00,,,-99.99,,2013-02-08 13:01:00,
2013-02-08 07:11:00,21.0,19.0,-100.00,SSW,205,4.0,4.0,91,0.00,,,-99.99,,2013-02-08 13:11:00,
2013-02-08 07:22:00,21.0,19.0,-100.00,West,265,1.0,4.0,91,0.00,,,-99.99,,2013-02-08 13:22:00,
2013-02-08 07:32:00,21.0,19.0,-100.00,South,190,4.0,6.0,91,0.00,,,-99.99,,2013-02-08 13:32:00,
2013-02-08 07:42:00,22.0,20.0,-100.00,SW,235,3.0,4.0,91,0.00,,,-99.99,,2013-02-08 13:42:00,
2013-02-08 07:51:00,21.0,19.0,-100.00,SW,235,0.0,2.0,91,0.00,,,-99.99,,2013-02-08 13:51:00,
2013-02-08 08:02:00,21.0,19.0,-100.00,SW,235,0.0,2.0,91,0.00,,,-99.99,,2013-02-08 14:02:00,
2013-02-08 08:11:00,21.0,19.0,-100.00,SE,130,6.0,6.0,91,0.00,,,-99.99,,2013-02-08 14:11:00,
2013-02-08 08:21:00,22.0,20.0,-100.00,SSE,150,1.0,6.0,91,0.00,,,-99.99,,2013-02-08 14:21:00,
2013-02-08 08:32:00,22.0,20.0,-100.00,East,95,1.0,2.0,91,0.00,,,-99.99,,2013-02-08 14:32:00,
2013-02-08 08:42:00,22.0,20.0,-100.00,NE,50,1.0,2.0,91,0.00,,,-99.99,,2013-02-08 14:42:00,
2013-02-08 08:52:00,22.0,20.0,-100.00,East,80,3.0,7.0,91,0.00,,,-99.99,,2013-02-08 14:52:00,
2013-02-08 09:02:00,22.0,20.0,-100.00,East,80,3.0,7.0,91,0.00,,,-99.99,,2013-02-08 15:02:00,
2013-02-08 09:11:00,22.0,20.0,-100.00,East,100,4.0,8.0,91,0.00,,,-99.99,,2013-02-08 15:11:00,
2013-02-08 09:21:00,22.0,20.0,-100.00,East,85,4.0,6.0,91,0.00,,,-99.99,,2013-02-08 15:21:00,
2013-02-08 09:32:00,22.0,20.0,-100.00,East,95,5.0,9.0,91,0.00,,,-99.99,,2013-02-08 15:32:00,
2013-02-08 09:42:00,22.0,20.0,-100.00,East,100,4.0,7.0,90,0.00,,,-99.99,,2013-02-08 15:42:00,
2013-02-08 09:52:00,23.0,20.0,-100.00,SSE,150,5.0,9.0,89,0.00,,,-99.99,,2013-02-08 15:52:00,
2013-02-08 10:01:00,23.0,20.0,-100.00,SSE,150,5.0,9.0,89,0.00,,,-99.99,,2013-02-08 16:01:00,
2013-02-08 10:11:00,23.0,20.0,-100.00,SE,135,4.0,7.0,87,0.00,,,-99.99,,2013-02-08 16:11:00,
2013-02-08 10:22:00,23.0,20.0,-100.00,ESE,105,6.0,12.0,87,0.00,,,-99.99,,2013-02-08 16:22:00,
2013-02-08 10:32:00,24.0,20.0,-100.00,ESE,115,7.0,9.0,86,0.00,,,-99.99,,2013-02-08 16:32:00,
2013-02-08 10:42:00,24.0,20.0,-100.00,SE,130,7.0,12.0,85,0.00,,,-99.99,,2013-02-08 16:42:00,
2013-02-08 10:51:00,24.0,20.0,-100.00,SE,135,6.0,10.0,82,0.00,,,-99.99,,2013-02-08 16:51:00,
2013-02-08 11:03:00,24.0,20.0,-100.00,SE,135,6.0,10.0,82,0.00,,,-99.99,,2013-02-08 17:03:00,
2013-02-08 11:12:00,25.0,20.0,-100.00,SSE,160,6.0,10.0,82,0.00,,,-99.99,,2013-02-08 17:12:00,
2013-02-08 11:22:00,25.0,20.0,-100.00,SSE,150,9.0,11.0,81,0.00,,,-99.99,,2013-02-08 17:22:00,
2013-02-08 11:32:00,26.0,20.0,-100.00,South,180,4.0,10.0,80,0.00,,,-99.99,,2013-02-08 17:32:00,
2013-02-08 11:42:00,26.0,20.0,-100.00,SE,125,8.0,11.0,79,0.00,,,-99.99,,2013-02-08 17:42:00,
2013-02-08 11:52:00,26.0,20.0,-100.00,SE,125,9.0,12.0,78,0.00,,,-99.99,,2013-02-08 17:52:00,
2013-02-08 12:02:00,26.0,20.0,-100.00,SE,125,9.0,12.0,78,0.00,,,-99.99,,2013-02-08 18:02:00,
2013-02-08 12:12:00,26.0,20.0,-100.00,SSE,150,9.0,12.0,77,0.00,,,-99.99,,2013-02-08 18:12:00,
2013-02-08 12:24:00,27.0,20.0,-100.00,SSE,165,8.0,11.0,76,0.00,,,-99.99,,2013-02-08 18:24:00,
2013-02-08 12:34:00,27.0,20.0,-100.00,South,175,9.0,11.0,76,0.00,,,-99.99,,2013-02-08 18:34:00,
2013-02-08 12:43:00,27.0,20.0,-100.00,SE,140,11.0,15.0,73,0.00,,,-99.99,,2013-02-08 18:43:00,
2013-02-08 12:52:00,27.0,20.0,-100.00,SSE,165,9.0,15.0,72,0.00,,,-99.99,,2013-02-08 18:52:00,
2013-02-08 13:02:00,27.0,20.0,-100.00,SSE,165,9.0,15.0,72,0.00,,,-99.99,,2013-02-08 19:02:00,
2013-02-08 13:11:00,28.0,20.0,-100.00,SSE,160,12.0,15.0,70,0.00,,,-99.99,,2013-02-08 19:11:00,
2013-02-08 13:22:00,28.0,20.0,-100.00,SE,145,11.0,13.0,70,0.00,,,-99.99,,2013-02-08 19:22:00,
2013-02-08 13:32:00,28.0,20.0,-100.00,SE,145,11.0,13.0,70,0.00,,,-99.99,,2013-02-08 19:32:00,
2013-02-08 13:42:00,29.0,20.0,-100.00,SSE,155,13.0,18.0,68,0.00,,,-99.99,,2013-02-08 19:42:00,
2013-02-08 13:52:00,29.0,20.0,-100.00,SSE,155,12.0,17.0,66,0.00,,,-99.99,,2013-02-08 19:52:00,
2013-02-08 14:02:00,29.0,20.0,-100.00,SSE,155,12.0,17.0,66,0.00,,,-99.99,,2013-02-08 20:02:00,
2013-02-08 14:11:00,29.0,19.0,-100.00,SSE,165,15.0,18.0,67,0.00,,,-99.99,,2013-02-08 20:11:00,
2013-02-08 14:21:00,30.0,20.0,-100.00,SSE,165,16.0,18.0,67,0.00,,,-99.99,,2013-02-08 20:21:00,
2013-02-08 14:32:00,30.0,20.0,-100.00,SE,145,12.0,17.0,66,0.00,,,-99.99,,2013-02-08 20:32:00,
2013-02-08 14:41:00,30.0,20.0,-100.00,SSE,155,12.0,19.0,66,0.00,,,-99.99,,2013-02-08 20:41:00,
2013-02-08 14:52:00,31.0,21.0,-100.00,SE,145,16.0,19.0,65,0.00,,,-99.99,,2013-02-08 20:52:00,
2013-02-08 15:02:00,31.0,21.0,-100.00,SE,145,16.0,19.0,65,0.00,,,-99.99,,2013-02-08 21:02:00,
2013-02-08 15:11:00,30.0,20.0,-100.00,SSE,150,16.0,19.0,65,0.00,,,-99.99,,2013-02-08 21:11:00,
2013-02-08 15:22:00,30.0,20.0,-100.00,SSE,155,15.0,19.0,65,0.00,,,-99.99,,2013-02-08 21:22:00,
2013-02-08 15:32:00,30.0,20.0,-100.00,SSE,165,15.0,19.0,65,0.00,,,-99.99,,2013-02-08 21:32:00,
2013-02-08 15:42:00,31.0,20.0,-100.00,SSE,150,14.0,19.0,65,0.00,,,-99.99,,2013-02-08 21:42:00,
2013-02-08 15:52:00,30.0,20.0,-100.00,SE,145,17.0,20.0,66,0.00,,,-99.99,,2013-02-08 21:52:00,
2013-02-08 16:02:00,30.0,20.0,-100.00,SE,145,17.0,20.0,66,0.00,,,-99.99,,2013-02-08 22:02:00,
2013-02-08 16:11:00,30.0,20.0,-100.00,SE,145,17.0,20.0,66,0.00,,,-99.99,,2013-02-08 22:11:00,
2013-02-08 16:21:00,30.0,20.0,-100.00,SSE,160,17.0,21.0,68,0.00,,,-99.99,,2013-02-08 22:21:00,
2013-02-08 16:32:00,29.0,20.0,-100.00,SSE,150,16.0,20.0,68,0.00,,,-99.99,,2013-02-08 22:32:00,
2013-02-08 16:42:00,28.0,20.0,-100.00,SSE,150,16.0,21.0,70,0.00,,,-99.99,,2013-02-08 22:42:00,
2013-02-08 16:52:00,27.0,20.0,-100.00,SE,140,15.0,20.0,73,0.00,,,-99.99,,2013-02-08 22:52:00,
2013-02-08 17:01:00,27.0,20.0,-100.00,SE,140,15.0,20.0,73,0.00,,,-99.99,,2013-02-08 23:01:00,
2013-02-08 17:11:00,27.0,20.0,-100.00,SSE,150,16.0,19.0,75,0.00,,,-99.99,,2013-02-08 23:11:00,
2013-02-08 17:21:00,26.0,20.0,-100.00,SSE,150,17.0,20.0,76,0.00,,,-99.99,,2013-02-08 23:21:00,
2013-02-08 17:32:00,26.0,20.0,-100.00,SSE,155,15.0,20.0,78,0.00,,,-99.99,,2013-02-08 23:32:00,
2013-02-08 17:41:00,26.0,21.0,-100.00,SSE,150,13.0,19.0,80,0.00,,,-99.99,,2013-02-08 23:41:00,
2013-02-08 17:52:00,26.0,21.0,-100.00,SE,135,16.0,21.0,81,0.00,,,-99.99,,2013-02-08 23:52:00,
2013-02-08 18:02:00,26.0,21.0,-100.00,SE,135,16.0,21.0,81,0.00,,,-99.99,,2013-02-09 00:02:00,
2013-02-08 18:11:00,26.0,21.0,-100.00,SE,140,15.0,21.0,82,0.00,,,-99.99,,2013-02-09 00:11:00,
2013-02-08 18:21:00,25.0,21.0,-100.00,SSE,150,19.0,22.0,83,0.00,,,-99.99,,2013-02-09 00:21:00,
2013-02-08 18:32:00,26.0,21.0,-100.00,SSE,155,16.0,22.0,83,0.00,,,-99.99,,2013-02-09 00:32:00,
2013-02-08 18:42:00,25.0,21.0,-100.00,SSE,150,18.0,22.0,84,0.00,,,-99.99,,2013-02-09 00:42:00,
2013-02-08 18:52:00,25.0,22.0,-100.00,SSE,160,14.0,22.0,85,0.00,,,-99.99,,2013-02-09 00:52:00,
2013-02-08 19:01:00,25.0,22.0,-100.00,SSE,160,14.0,22.0,85,0.00,,,-99.99,,2013-02-09 01:01:00,
2013-02-08 19:11:00,26.0,22.0,-100.00,SSE,155,16.0,22.0,86,0.00,,,-99.99,,2013-02-09 01:11:00,
2013-02-08 19:21:00,25.0,22.0,-100.00,SSE,150,17.0,22.0,86,0.00,,,-99.99,,2013-02-09 01:21:00,
2013-02-08 19:32:00,25.0,22.0,-100.00,SSE,155,19.0,22.0,86,0.00,,,-99.99,,2013-02-09 01:32:00,
2013-02-08 19:41:00,25.0,22.0,-100.00,SSE,155,15.0,21.0,87,0.00,,,-99.99,,2013-02-09 01:41:00,
2013-02-08 19:52:00,25.0,22.0,-100.00,SE,145,18.0,24.0,87,0.00,,,-99.99,,2013-02-09 01:52:00,
2013-02-08 20:01:00,25.0,22.0,-100.00,SE,140,19.0,23.0,88,0.00,,,-99.99,,2013-02-09 02:01:00,
2013-02-08 20:11:00,24.0,22.0,-100.00,SSE,155,18.0,26.0,89,0.00,,,-99.99,,2013-02-09 02:11:00,
2013-02-08 20:21:00,25.0,22.0,-100.00,SSE,160,17.0,22.0,89,0.00,,,-99.99,,2013-02-09 02:21:00,
2013-02-08 20:32:00,25.0,22.0,-100.00,SSE,160,17.0,22.0,89,0.00,,,-99.99,,2013-02-09 02:32:00,
2013-02-08 20:42:00,25.0,22.0,-100.00,SSE,155,21.0,24.0,90,0.00,,,-99.99,,2013-02-09 02:42:00,
2013-02-08 20:52:00,25.0,22.0,-100.00,SSE,160,21.0,26.0,90,0.00,,,-99.99,,2013-02-09 02:52:00,
2013-02-08 21:02:00,25.0,22.0,-100.00,SSE,160,21.0,26.0,90,0.00,,,-99.99,,2013-02-09 03:02:00,
2013-02-08 21:11:00,25.0,22.0,-100.00,SSE,160,19.0,24.0,90,0.00,,,-99.99,,2013-02-09 03:11:00,
2013-02-08 21:21:00,25.0,23.0,-100.00,SSE,155,18.0,24.0,90,0.00,,,-99.99,,2013-02-09 03:21:00,
2013-02-08 21:32:00,25.0,23.0,-100.00,SSE,155,21.0,25.0,90,0.00,,,-99.99,,2013-02-09 03:32:00,
2013-02-08 21:42:00,25.0,23.0,-100.00,SSE,160,18.0,24.0,90,0.00,,,-99.99,,2013-02-09 03:42:00,
2013-02-08 21:52:00,25.0,23.0,-100.00,SSE,160,19.0,24.0,90,0.00,,,-99.99,,2013-02-09 03:52:00,
2013-02-08 22:02:00,25.0,23.0,-100.00,SSE,160,19.0,24.0,90,0.00,,,-99.99,,2013-02-09 04:02:00,
2013-02-08 22:12:00,25.0,23.0,-100.00,SSE,165,17.0,24.0,90,0.00,,,-99.99,,2013-02-09 04:12:00,
2013-02-08 22:23:00,25.0,23.0,-100.00,SSE,155,18.0,22.0,90,0.00,,,-99.99,,2013-02-09 04:23:00,
2013-02-08 22:32:00,25.0,23.0,-100.00,SSE,165,19.0,23.0,90,0.00,,,-99.99,,2013-02-09 04:32:00,
2013-02-08 22:42:00,25.0,23.0,-100.00,SSE,160,19.0,24.0,90,0.00,,,-99.99,,2013-02-09 04:42:00,
2013-02-08 22:52:00,26.0,23.0,-100.00,SSE,160,18.0,22.0,90,0.00,,,-99.99,,2013-02-09 04:52:00,
2013-02-08 23:02:00,26.0,23.0,-100.00,SSE,150,12.0,21.0,90,0.00,,,-99.99,,2013-02-09 05:02:00,
2013-02-08 23:12:00,26.0,23.0,-100.00,South,175,12.0,17.0,90,0.00,,,-99.99,,2013-02-09 05:12:00,
2013-02-08 23:22:00,26.0,23.0,-100.00,SSE,160,12.0,17.0,90,0.00,,,-99.99,,2013-02-09 05:22:00,
2013-02-08 23:32:00,26.0,23.0,-100.00,SSE,160,14.0,19.0,90,0.00,,,-99.99,,2013-02-09 05:32:00,
2013-02-08 23:42:00,26.0,23.0,-100.00,SSE,150,16.0,19.0,90,0.00,,,-99.99,,2013-02-09 05:42:00,
2013-02-08 23:52:00,26.0,23.0,-100.00,SSE,155,16.0,20.0,91,0.00,,,-99.99,,2013-02-09 05:52:00,